| time (UTC) | temp F | wind direction | speed MPH | gust MPH | rain 1hr in | rain 24hr in | rain mn in | humidity % | barometer mb |
| 20260906162013 | 77 | 57 | 4.0 | 6.0 | 0.00 | 0.00 | 0.00 | 84 | 1017.4 |
| 20260906161508 | 78 | 134 | 1.0 | 6.0 | 0.00 | 0.00 | 0.00 | 84 | 1017.3 |
| 20260906161008 | 78 | 142 | 2.0 | 10.0 | 0.00 | 0.00 | 0.00 | 83 | 1017.3 |
| 20260906160506 | 78 | 125 | 5.0 | 8.0 | 0.00 | 0.00 | 0.00 | 82 | 1017.1 |
| 20260906160004 | 78 | 156 | 4.0 | 5.0 | 0.00 | 0.00 | 0.00 | 83 | 1017.3 |
| 20260906155503 | 78 | 138 | 4.0 | 5.0 | 0.00 | 0.00 | 0.00 | 82 | 1017.3 |
| 20260906154959 | 79 | 145 | 5.0 | 10.0 | 0.00 | 0.00 | 0.00 | 81 | 1017.4 |
| 20260906154455 | 80 | 74 | 2.0 | 4.0 | 0.00 | 0.00 | 0.00 | 80 | 1017.2 |
| 20260906153952 | 80 | 140 | 4.0 | 5.0 | 0.00 | 0.00 | 0.00 | 81 | 1017.2 |
| 20260906153451 | 79 | 137 | 2.0 | 5.0 | 0.00 | 0.00 | 0.00 | 81 | 1017.4 |
| 20260906152947 | 78 | 147 | 6.0 | 6.0 | 0.00 | 0.00 | 0.00 | 81 | 1017.2 |
| 20260906152447 | 78 | 128 | 4.0 | 6.0 | 0.00 | 0.00 | 0.00 | 82 | 1017.1 |
| 20260906151946 | 79 | 171 | 4.0 | 8.0 | 0.00 | 0.00 | 0.00 | 82 | 1017.1 |
| 20260906151442 | 78 | 142 | 6.0 | 6.0 | 0.00 | 0.00 | 0.00 | 81 | 1017.2 |
| 20260906150938 | 78 | 139 | 5.0 | 8.0 | 0.00 | 0.00 | 0.00 | 82 | 1017.2 |
| 20260906150433 | 78 | 152 | 6.0 | 9.0 | 0.00 | 0.00 | 0.00 | 82 | 1017.1 |
| 20260906145932 | 78 | 144 | 2.0 | 6.0 | 0.00 | 0.00 | 0.00 | 83 | 1017.3 |
| 20260906145432 | 77 | 166 | 3.0 | 4.0 | 0.00 | 0.00 | 0.00 | 84 | 1017.2 |
| 20260906144927 | 78 | 21 | 1.0 | 5.0 | 0.00 | 0.00 | 0.00 | 84 | 1017.3 |
| 20260906144427 | 78 | 192 | 1.0 | 3.0 | 0.00 | 0.00 | 0.00 | 82 | 1017.0 |
| 20260906143922 | 77 | 147 | 3.0 | 7.0 | 0.00 | 0.00 | 0.00 | 84 | 1017.0 |
| 20260906143418 | 77 | 169 | 3.0 | 7.0 | 0.00 | 0.00 | 0.00 | 85 | 1017.2 |
| 20260906142913 | 76 | 144 | 3.0 | 3.0 | 0.00 | 0.00 | 0.00 | 87 | 1017.3 |
| 20260906142408 | 75 | 180 | 2.0 | 2.0 | 0.00 | 0.00 | 0.00 | 88 | 1017.4 |
| 20260906141908 | 75 | 196 | 1.0 | 2.0 | 0.00 | 0.00 | 0.00 | 90 | 1017.4 |
| 20260906141402 | 75 | 169 | 1.0 | 2.0 | 0.00 | 0.00 | 0.00 | 90 | 1017.4 |
| 20260906140902 | 75 | 147 | 4.0 | 5.0 | 0.00 | 0.00 | 0.00 | 91 | 1017.3 |
| 20260906140356 | 74 | 180 | 2.0 | 5.0 | 0.00 | 0.00 | 0.00 | 91 | 1017.4 |
| 20260906135855 | 74 | 168 | 3.0 | 6.0 | 0.00 | 0.00 | 0.00 | 91 | 1017.3 |
| 20260906135354 | 74 | 156 | 5.0 | 6.0 | 0.00 | 0.00 | 0.00 | 91 | 1017.4 |
| 20260906134850 | 74 | 159 | 2.0 | 5.0 | 0.00 | 0.00 | 0.00 | 92 | 1017.1 |
| 20260906134344 | 74 | 149 | 6.0 | 6.0 | 0.00 | 0.00 | 0.00 | 92 | 1017.1 |
| 20260906133840 | 73 | 115 | 2.0 | 4.0 | 0.00 | 0.00 | 0.00 | 93 | 1017.1 |
| 20260906133336 | 73 | 152 | 0.0 | 2.0 | 0.00 | 0.00 | 0.00 | 93 | 1017.1 |
| 20260906132831 | 73 | 168 | 2.0 | 4.0 | 0.00 | 0.00 | 0.00 | 93 | 1017.3 |
| 20260906132326 | 73 | 158 | 1.0 | 4.0 | 0.00 | 0.00 | 0.00 | 93 | 1017.3 |
| 20260906131822 | 73 | 147 | 3.0 | 4.0 | 0.00 | 0.00 | 0.00 | 93 | 1017.3 |
| 20260906131317 | 73 | 157 | 3.0 | 4.0 | 0.00 | 0.00 | 0.00 | 93 | 1017.2 |
| 20260906130813 | 73 | 174 | 0.0 | 3.0 | 0.00 | 0.00 | 0.00 | 95 | 1017.3 |
| 20260906130312 | 72 | 163 | 2.0 | 4.0 | 0.00 | 0.00 | 0.00 | 95 | 1016.9 |
| 20260906125811 | 72 | 151 | 3.0 | 4.0 | 0.00 | 0.00 | 0.00 | 96 | 1016.8 |
| 20260906125309 | 72 | 142 | 3.0 | 4.0 | 0.00 | 0.00 | 0.00 | 95 | 1016.8 |
| 20260906124804 | 71 | 179 | 1.0 | 4.0 | 0.00 | 0.00 | 0.00 | 95 | 1016.7 |
| 20260906124300 | 71 | 111 | 2.0 | 5.0 | 0.00 | 0.00 | 0.00 | 95 | 1016.6 |
| 20260906123759 | 71 | 154 | 0.0 | 4.0 | 0.00 | 0.00 | 0.00 | 95 | 1016.4 |
| 20260906123254 | 71 | 167 | 3.0 | 5.0 | 0.00 | 0.00 | 0.00 | 95 | 1016.6 |
| 20260906122753 | 71 | 203 | 1.0 | 5.0 | 0.00 | 0.00 | 0.00 | 95 | 1016.5 |
| 20260906122249 | 71 | 24 | 1.0 | 3.0 | 0.00 | 0.00 | 0.00 | 96 | 1016.5 |
| 20260906121745 | 71 | 122 | 1.0 | 4.0 | 0.00 | 0.00 | 0.00 | 96 | 1016.1 |
| 20260906121241 | 71 | 154 | 2.0 | 4.0 | 0.00 | 0.00 | 0.00 | 96 | 1016.3 |
| 20260906120737 | 71 | 171 | 3.0 | 4.0 | 0.00 | 0.00 | 0.00 | 96 | 1016.1 |
| 20260906120233 | 71 | 154 | 2.0 | 4.0 | 0.00 | 0.00 | 0.00 | 96 | 1016.0 |
| 20260906115729 | 71 | 153 | 3.0 | 5.0 | 0.00 | 0.00 | 0.00 | 96 | 1016.0 |
| 20260906115224 | 71 | 136 | 1.0 | 5.0 | 0.00 | 0.00 | 0.00 | 96 | 1016.0 |
| 20260906114723 | 71 | 146 | 2.0 | 4.0 | 0.00 | 0.00 | 0.00 | 96 | 1015.9 |
| 20260906114218 | 71 | 161 | 3.0 | 4.0 | 0.00 | 0.00 | 0.00 | 96 | 1015.9 |
| 20260906113714 | 71 | 136 | 4.0 | 4.0 | 0.00 | 0.00 | 0.00 | 96 | 1015.9 |
| 20260906113213 | 71 | 140 | 4.0 | 4.0 | 0.00 | 0.00 | 0.00 | 96 | 1015.9 |
| 20260906112712 | 71 | 129 | 3.0 | 5.0 | 0.00 | 0.00 | 0.00 | 96 | 1015.8 |
| 20260906112210 | 71 | 111 | 2.0 | 4.0 | 0.00 | 0.00 | 0.00 | 95 | 1015.8 |
| 20260906111709 | 71 | 105 | 2.0 | 5.0 | 0.00 | 0.00 | 0.00 | 95 | 1015.8 |
| 20260906111203 | 71 | 118 | 4.0 | 4.0 | 0.00 | 0.00 | 0.00 | 95 | 1016.0 |
| 20260906110659 | 71 | 138 | 1.0 | 4.0 | 0.00 | 0.00 | 0.00 | 95 | 1016.0 |
| 20260906110154 | 71 | 131 | 4.0 | 4.0 | 0.00 | 0.00 | 0.00 | 95 | 1016.1 |
| 20260906105654 | 71 | 144 | 1.0 | 6.0 | 0.00 | 0.00 | 0.00 | 95 | 1016.1 |
| 20260906105150 | 71 | 119 | 5.0 | 6.0 | 0.00 | 0.00 | 0.00 | 95 | 1016.1 |
| 20260906104649 | 71 | 189 | 2.0 | 3.0 | 0.00 | 0.00 | 0.00 | 95 | 1016.2 |
| 20260906104149 | 71 | 145 | 2.0 | 4.0 | 0.00 | 0.00 | 0.00 | 95 | 1016.0 |
| 20260906103647 | 72 | 126 | 2.0 | 3.0 | 0.00 | 0.00 | 0.00 | 95 | 1016.0 |
| 20260906103142 | 72 | 129 | 3.0 | 3.0 | 0.00 | 0.00 | 0.00 | 95 | 1016.0 |
| 20260906102637 | 72 | 116 | 1.0 | 2.0 | 0.00 | 0.00 | 0.00 | 95 | 1016.0 |
| 20260906102137 | 72 | 113 | 2.0 | 4.0 | 0.00 | 0.00 | 0.00 | 95 | 1015.9 |
| 20260906101637 | 72 | 153 | 2.0 | 5.0 | 0.00 | 0.00 | 0.00 | 95 | 1015.7 |
| 20260906101137 | 72 | 107 | 3.0 | 4.0 | 0.00 | 0.00 | 0.00 | 95 | 1015.7 |
| 20260906100632 | 72 | 101 | 3.0 | 4.0 | 0.00 | 0.00 | 0.00 | 95 | 1015.9 |
| 20260906100128 | 72 | 196 | 0.0 | 4.0 | 0.00 | 0.00 | 0.00 | 95 | 1016.0 |
| 20260906095628 | 72 | 117 | 2.0 | 3.0 | 0.00 | 0.00 | 0.00 | 95 | 1015.9 |
| 20260906095123 | 72 | 349 | 1.0 | 2.0 | 0.00 | 0.00 | 0.00 | 95 | 1015.8 |
| 20260906094622 | 72 | 172 | 0.0 | 3.0 | 0.00 | 0.00 | 0.00 | 95 | 1015.9 |
| 20260906094118 | 72 | 169 | 1.0 | 4.0 | 0.00 | 0.00 | 0.00 | 95 | 1015.8 |
| 20260906093615 | 72 | 139 | 2.0 | 4.0 | 0.00 | 0.00 | 0.00 | 94 | 1015.7 |
| 20260906093114 | 72 | 146 | 2.0 | 3.0 | 0.00 | 0.00 | 0.00 | 94 | 1015.6 |
| 20260906092609 | 72 | 116 | 2.0 | 4.0 | 0.00 | 0.00 | 0.00 | 94 | 1015.5 |
| 20260906092104 | 72 | 168 | 2.0 | 3.0 | 0.00 | 0.00 | 0.00 | 94 | 1015.7 |
| 20260906091600 | 73 | 205 | 1.0 | 3.0 | 0.00 | 0.00 | 0.00 | 94 | 1015.5 |
| 20260906091057 | 73 | 102 | 1.0 | 4.0 | 0.00 | 0.00 | 0.00 | 94 | 1015.3 |
| 20260906090556 | 73 | 179 | 1.0 | 3.0 | 0.00 | 0.00 | 0.00 | 94 | 1015.3 |
| 20260906090056 | 73 | 181 | 2.0 | 5.0 | 0.00 | 0.00 | 0.00 | 94 | 1015.3 |
| 20260906085555 | 73 | 161 | 2.0 | 4.0 | 0.00 | 0.00 | 0.00 | 94 | 1015.3 |
| 20260906085050 | 73 | 132 | 1.0 | 6.0 | 0.00 | 0.00 | 0.00 | 94 | 1015.3 |
| 20260906084545 | 73 | 139 | 0.0 | 3.0 | 0.00 | 0.00 | 0.00 | 94 | 1015.1 |
| 20260906084043 | 73 | 171 | 1.0 | 4.0 | 0.00 | 0.00 | 0.00 | 94 | 1015.1 |
| 20260906083539 | 73 | 148 | 2.0 | 5.0 | 0.00 | 0.00 | 0.00 | 93 | 1015.1 |
| 20260906083039 | 73 | 106 | 3.0 | 6.0 | 0.00 | 0.00 | 0.00 | 93 | 1014.9 |
| 20260906082534 | 73 | 149 | 3.0 | 6.0 | 0.00 | 0.00 | 0.00 | 93 | 1015.2 |
| 20260906082030 | 73 | 145 | 5.0 | 5.0 | 0.00 | 0.00 | 0.00 | 93 | 1015.2 |
| 20260906081526 | 73 | 163 | 2.0 | 5.0 | 0.00 | 0.00 | 0.00 | 93 | 1015.2 |
| 20260906081021 | 73 | 180 | 1.0 | 7.0 | 0.00 | 0.00 | 0.00 | 93 | 1014.8 |
| 20260906080517 | 73 | 190 | 2.0 | 4.0 | 0.00 | 0.00 | 0.00 | 93 | 1015.2 |
| 20260906080014 | 74 | 110 | 3.0 | 8.0 | 0.00 | 0.00 | 0.00 | 93 | 1014.9 |
| 20260906075507 | 74 | 116 | 2.0 | 7.0 | 0.00 | 0.00 | 0.00 | 93 | 1014.8 |
| 20260906075002 | 74 | 145 | 3.0 | 6.0 | 0.00 | 0.00 | 0.00 | 93 | 1015.1 |
| 20260906074457 | 74 | 106 | 5.0 | 5.0 | 0.00 | 0.00 | 0.00 | 93 | 1015.2 |
| 20260906073955 | 74 | 138 | 2.0 | 5.0 | 0.00 | 0.00 | 0.00 | 93 | 1015.2 |
| 20260906073450 | 74 | 138 | 3.0 | 5.0 | 0.00 | 0.00 | 0.00 | 93 | 1015.3 |
| 20260906072946 | 74 | 125 | 1.0 | 5.0 | 0.00 | 0.00 | 0.00 | 93 | 1015.2 |
| 20260906072441 | 74 | 118 | 2.0 | 7.0 | 0.00 | 0.00 | 0.00 | 93 | 1015.3 |
| 20260906071937 | 74 | 105 | 4.0 | 6.0 | 0.00 | 0.00 | 0.00 | 93 | 1015.1 |
| 20260906071433 | 75 | 140 | 4.0 | 7.0 | 0.00 | 0.00 | 0.00 | 93 | 1014.9 |
| 20260906070929 | 75 | 136 | 3.0 | 8.0 | 0.00 | 0.00 | 0.00 | 93 | 1015.2 |
| 20260906070425 | 75 | 164 | 2.0 | 6.0 | 0.00 | 0.00 | 0.00 | 93 | 1015.3 |
| 20260906065920 | 75 | 130 | 3.0 | 6.0 | 0.00 | 0.00 | 0.00 | 93 | 1015.2 |
| 20260906065415 | 75 | 101 | 2.0 | 3.0 | 0.00 | 0.00 | 0.00 | 94 | 1015.5 |
| 20260906064910 | 75 | 154 | 3.0 | 5.0 | 0.00 | 0.00 | 0.00 | 94 | 1015.4 |
| 20260906064407 | 75 | 140 | 1.0 | 5.0 | 0.00 | 0.00 | 0.00 | 94 | 1015.5 |
| 20260906063907 | 75 | 162 | 2.0 | 4.0 | 0.00 | 0.00 | 0.00 | 94 | 1015.5 |
| 20260906063402 | 75 | 129 | 2.0 | 5.0 | 0.00 | 0.00 | 0.00 | 94 | 1015.3 |
| 20260906062856 | 75 | 145 | 0.0 | 3.0 | 0.00 | 0.00 | 0.00 | 94 | 1015.4 |
| 20260906062356 | 75 | 156 | 2.0 | 3.0 | 0.00 | 0.00 | 0.00 | 94 | 1015.4 |
| 20260906061851 | 76 | 184 | 0.0 | 3.0 | 0.00 | 0.00 | 0.00 | 94 | 1015.4 |
| 20260906061348 | 76 | 164 | 0.0 | 2.0 | 0.00 | 0.00 | 0.00 | 93 | 1015.2 |
| 20260906060842 | 76 | 199 | 1.0 | 2.0 | 0.00 | 0.00 | 0.00 | 93 | 1015.2 |
| 20260906060340 | 76 | 203 | 1.0 | 2.0 | 0.00 | 0.00 | 0.00 | 93 | 1015.2 |
| 20260906055836 | 76 | 162 | 2.0 | 4.0 | 0.00 | 0.00 | 0.00 | 93 | 1015.4 |
| 20260906055331 | 76 | 126 | 2.0 | 4.0 | 0.00 | 0.00 | 0.00 | 93 | 1015.4 |
| 20260906054826 | 77 | 180 | 0.0 | 3.0 | 0.00 | 0.00 | 0.00 | 93 | 1015.6 |
| 20260906054321 | 77 | 189 | 0.0 | 4.0 | 0.00 | 0.00 | 0.00 | 93 | 1015.5 |
| 20260906053818 | 77 | 160 | 1.0 | 3.0 | 0.00 | 0.00 | 0.00 | 93 | 1015.5 |
| 20260906053313 | 77 | 143 | 1.0 | 3.0 | 0.00 | 0.00 | 0.00 | 93 | 1015.4 |
| 20260906052808 | 77 | 94 | 2.0 | 2.0 | 0.00 | 0.00 | 0.00 | 93 | 1015.2 |
| 20260906052306 | 77 | 118 | 2.0 | 3.0 | 0.00 | 0.00 | 0.00 | 93 | 1015.3 |
| 20260906051801 | 77 | 168 | 1.0 | 3.0 | 0.00 | 0.00 | 0.00 | 93 | 1015.4 |
| 20260906051301 | 77 | 180 | 1.0 | 5.0 | 0.00 | 0.00 | 0.00 | 92 | 1015.2 |
| 20260906050756 | 78 | 140 | 0.0 | 3.0 | 0.00 | 0.00 | 0.00 | 92 | 1015.1 |
| 20260906050251 | 78 | 112 | 2.0 | 4.0 | 0.00 | 0.00 | 0.00 | 92 | 1015.2 |
| 20260906045750 | 78 | 133 | 2.0 | 5.0 | 0.00 | 0.00 | 0.00 | 92 | 1015.3 |
| 20260906045245 | 78 | 149 | 2.0 | 5.0 | 0.00 | 0.00 | 0.00 | 92 | 1014.9 |
| 20260906044741 | 78 | 195 | 2.0 | 5.0 | 0.00 | 0.00 | 0.00 | 92 | 1015.2 |
| 20260906044235 | 78 | 172 | 1.0 | 3.0 | 0.00 | 0.00 | 0.00 | 91 | 1015.1 |
| 20260906043732 | 79 | 117 | 4.0 | 6.0 | 0.00 | 0.00 | 0.00 | 91 | 1015.1 |
| 20260906043228 | 79 | 101 | 2.0 | 5.0 | 0.00 | 0.00 | 0.00 | 91 | 1014.9 |
| 20260906042727 | 79 | 173 | 2.0 | 4.0 | 0.00 | 0.00 | 0.00 | 90 | 1014.9 |
| 20260906042226 | 79 | 147 | 3.0 | 3.0 | 0.00 | 0.00 | 0.00 | 90 | 1014.7 |
| 20260906041722 | 79 | 117 | 2.0 | 5.0 | 0.00 | 0.00 | 0.00 | 90 | 1014.9 |
| 20260906041217 | 80 | 278 | 0.0 | 6.0 | 0.00 | 0.00 | 0.00 | 89 | 1014.8 |
| 20260906040713 | 80 | 188 | 0.0 | 5.0 | 0.00 | 0.00 | 0.00 | 89 | 1014.7 |
| 20260906040208 | 80 | 121 | 4.0 | 6.0 | 0.00 | 0.00 | 0.00 | 88 | 1014.7 |
| 20260906035703 | 80 | 110 | 1.0 | 4.0 | 0.00 | 0.00 | 0.00 | 88 | 1014.5 |
| 20260906035159 | 80 | 106 | 2.0 | 5.0 | 0.00 | 0.00 | 0.00 | 88 | 1014.8 |
| 20260906034653 | 80 | 47 | 1.0 | 5.0 | 0.00 | 0.00 | 0.00 | 87 | 1014.6 |
| 20260906034148 | 81 | 43 | 1.0 | 8.0 | 0.00 | 0.00 | 0.00 | 87 | 1014.5 |
| 20260906033644 | 80 | 110 | 3.0 | 4.0 | 0.00 | 0.00 | 0.00 | 88 | 1014.5 |
| 20260906033143 | 80 | 119 | 0.0 | 4.0 | 0.00 | 0.00 | 0.00 | 88 | 1014.4 |
| 20260906032640 | 80 | 112 | 2.0 | 3.0 | 0.00 | 0.00 | 0.00 | 88 | 1014.3 |
| 20260906032140 | 80 | 126 | 0.0 | 2.0 | 0.00 | 0.00 | 0.00 | 87 | 1014.4 |
| 20260906031635 | 80 | 115 | 1.0 | 3.0 | 0.00 | 0.00 | 0.00 | 86 | 1014.3 |
| 20260906031131 | 81 | 334 | 0.0 | 3.0 | 0.00 | 0.00 | 0.00 | 85 | 1014.1 |
| 20260906030630 | 81 | 146 | 1.0 | 2.0 | 0.00 | 0.00 | 0.00 | 85 | 1014.3 |
| 20260906030125 | 81 | 139 | 0.0 | 2.0 | 0.00 | 0.00 | 0.00 | 85 | 1014.2 |
| 20260906025624 | 81 | 126 | 2.0 | 3.0 | 0.00 | 0.00 | 0.00 | 84 | 1014.0 |
| 20260906025124 | 81 | 105 | 1.0 | 3.0 | 0.00 | 0.00 | 0.00 | 84 | 1014.0 |
| 20260906024619 | 81 | 110 | 2.0 | 4.0 | 0.00 | 0.00 | 0.00 | 85 | 1014.1 |
| 20260906024113 | 81 | 102 | 1.0 | 3.0 | 0.00 | 0.00 | 0.00 | 85 | 1014.1 |
| 20260906023609 | 81 | 111 | 2.0 | 2.0 | 0.00 | 0.00 | 0.00 | 84 | 1014.0 |
| 20260906023103 | 82 | 145 | 0.0 | 3.0 | 0.00 | 0.00 | 0.00 | 84 | 1013.9 |
| 20260906022559 | 82 | 71 | 0.0 | 3.0 | 0.00 | 0.00 | 0.00 | 84 | 1013.9 |
| 20260906022054 | 82 | 49 | 2.0 | 3.0 | 0.00 | 0.00 | 0.00 | 83 | 1013.9 |
| 20260906021550 | 82 | 128 | 1.0 | 3.0 | 0.00 | 0.00 | 0.00 | 83 | 1013.7 |
| 20260906021049 | 82 | 126 | 0.0 | 2.0 | 0.00 | 0.00 | 0.00 | 83 | 1013.8 |
| 20260906020548 | 82 | 312 | 1.0 | 2.0 | 0.00 | 0.00 | 0.00 | 82 | 1013.6 |
| 20260906020048 | 82 | 128 | 1.0 | 2.0 | 0.00 | 0.00 | 0.00 | 82 | 1013.7 |
| 20260906015547 | 82 | 162 | 0.0 | 2.0 | 0.00 | 0.00 | 0.00 | 82 | 1013.4 |
| 20260906015047 | 82 | 264 | 0.0 | 2.0 | 0.00 | 0.00 | 0.00 | 82 | 1013.5 |
| 20260906014542 | 83 | 101 | 1.0 | 1.0 | 0.00 | 0.00 | 0.00 | 82 | 1013.4 |
| 20260906014038 | 83 | 116 | 1.0 | 2.0 | 0.00 | 0.00 | 0.00 | 81 | 1013.2 |
| 20260906013533 | 83 | 125 | 0.0 | 2.0 | 0.00 | 0.00 | 0.00 | 81 | 1013.3 |
| 20260906013029 | 83 | 142 | 0.0 | 2.0 | 0.00 | 0.00 | 0.00 | 80 | 1013.2 |
| 20260906012524 | 84 | 127 | 0.0 | 1.0 | 0.00 | 0.00 | 0.00 | 80 | 1013.1 |
| 20260906012023 | 84 | 139 | 0.0 | 2.0 | 0.00 | 0.00 | 0.00 | 79 | 1013.2 |
| 20260906011519 | 84 | 114 | 0.0 | 2.0 | 0.00 | 0.00 | 0.00 | 79 | 1013.1 |
| 20260906011019 | 84 | 25 | 0.0 | 3.0 | 0.00 | 0.00 | 0.00 | 80 | 1013.1 |
| 20260906010514 | 84 | 126 | 0.0 | 2.0 | 0.00 | 0.00 | 0.00 | 80 | 1013.0 |
| 20260906010011 | 84 | 250 | 0.0 | 2.0 | 0.00 | 0.00 | 0.00 | 79 | 1013.1 |
| 20260906005510 | 84 | 138 | 1.0 | 1.0 | 0.00 | 0.00 | 0.00 | 79 | 1013.2 |
| 20260906005009 | 85 | 139 | 0.0 | 1.0 | 0.00 | 0.00 | 0.00 | 78 | 1013.0 |
| 20260906004509 | 85 | 338 | 0.0 | 1.0 | 0.00 | 0.00 | 0.00 | 78 | 1013.0 |
| 20260906004004 | 85 | 335 | 0.0 | 2.0 | 0.00 | 0.00 | 0.00 | 77 | 1012.9 |
| 20260906003459 | 86 | 138 | 0.0 | 2.0 | 0.00 | 0.00 | 0.00 | 77 | 1012.7 |
| 20260906002954 | 86 | 118 | 1.0 | 3.0 | 0.00 | 0.00 | 0.00 | 76 | 1012.9 |
| 20260906002455 | 86 | 152 | 1.0 | 3.0 | 0.00 | 0.00 | 0.00 | 76 | 1012.9 |
| 20260906001950 | 86 | 133 | 1.0 | 3.0 | 0.00 | 0.00 | 0.00 | 75 | 1012.7 |
| 20260906001446 | 87 | 113 | 2.0 | 3.0 | 0.00 | 0.00 | 0.00 | 75 | 1012.7 |
| 20260906000940 | 87 | 125 | 2.0 | 3.0 | 0.00 | 0.00 | 0.00 | 74 | 1013.0 |
| 20260906000436 | 87 | 132 | 2.0 | 4.0 | 0.00 | 0.00 | 0.00 | 73 | 1013.0 |
| 20260905235930 | 88 | 119 | 2.0 | 4.0 | 0.00 | 0.00 | 0.00 | 72 | 1012.9 |
| 20260905235430 | 88 | 67 | 2.0 | 4.0 | 0.00 | 0.00 | 0.00 | 71 | 1013.0 |
| 20260905234925 | 88 | 145 | 2.0 | 3.0 | 0.00 | 0.00 | 0.00 | 71 | 1013.1 |
| 20260905234420 | 89 | 180 | 0.0 | 4.0 | 0.00 | 0.00 | 0.00 | 70 | 1012.9 |
| 20260905233915 | 89 | 93 | 2.0 | 4.0 | 0.00 | 0.00 | 0.00 | 70 | 1013.1 |
| 20260905233410 | 89 | 40 | 2.0 | 5.0 | 0.00 | 0.00 | 0.00 | 70 | 1012.9 |
| 20260905232909 | 89 | 344 | 1.0 | 4.0 | 0.00 | 0.00 | 0.00 | 70 | 1012.8 |
| 20260905232405 | 90 | 23 | 3.0 | 4.0 | 0.00 | 0.00 | 0.00 | 69 | 1012.7 |
| 20260905231900 | 90 | 128 | 4.0 | 4.0 | 0.00 | 0.00 | 0.00 | 67 | 1012.8 |
| 20260905231356 | 90 | 13 | 0.0 | 4.0 | 0.00 | 0.00 | 0.00 | 67 | 1012.8 |
| 20260905230853 | 90 | 58 | 1.0 | 7.0 | 0.00 | 0.00 | 0.00 | 66 | 1012.8 |
| 20260905230350 | 91 | 134 | 2.0 | 4.0 | 0.00 | 0.00 | 0.00 | 66 | 1012.8 |
| 20260905225849 | 91 | 52 | 2.0 | 3.0 | 0.00 | 0.00 | 0.00 | 66 | 1012.8 |
| 20260905225344 | 91 | 14 | 5.0 | 5.0 | 0.00 | 0.00 | 0.00 | 65 | 1012.8 |
| 20260905224840 | 91 | 29 | 4.0 | 4.0 | 0.00 | 0.00 | 0.00 | 65 | 1012.9 |
| 20260905224335 | 91 | 24 | 1.0 | 4.0 | 0.00 | 0.00 | 0.00 | 64 | 1012.9 |
| 20260905223830 | 91 | 3 | 4.0 | 5.0 | 0.00 | 0.00 | 0.00 | 64 | 1012.7 |
| 20260905223328 | 91 | 12 | 3.0 | 7.0 | 0.00 | 0.00 | 0.00 | 65 | 1012.7 |
| 20260905222822 | 91 | 359 | 4.0 | 6.0 | 0.00 | 0.00 | 0.00 | 66 | 1012.7 |
| 20260905222321 | 90 | 27 | 2.0 | 5.0 | 0.00 | 0.00 | 0.00 | 66 | 1012.8 |
| 20260905221818 | 90 | 21 | 4.0 | 8.0 | 0.00 | 0.00 | 0.00 | 66 | 1012.9 |
| 20260905221314 | 90 | 16 | 2.0 | 6.0 | 0.00 | 0.00 | 0.00 | 66 | 1012.7 |
| 20260905220810 | 91 | 30 | 5.0 | 6.0 | 0.00 | 0.00 | 0.00 | 65 | 1012.8 |
| 20260905220306 | 91 | 93 | 1.0 | 4.0 | 0.00 | 0.00 | 0.00 | 65 | 1012.6 |
| 20260905215805 | 91 | 12 | 4.0 | 7.0 | 0.00 | 0.00 | 0.00 | 65 | 1012.5 |
| 20260905215301 | 91 | 28 | 4.0 | 5.0 | 0.00 | 0.00 | 0.00 | 64 | 1012.5 |
| 20260905214756 | 91 | 103 | 2.0 | 2.0 | 0.00 | 0.00 | 0.00 | 65 | 1012.8 |
| 20260905214252 | 91 | 335 | 2.0 | 5.0 | 0.00 | 0.00 | 0.00 | 64 | 1012.5 |
| 20260905213747 | 92 | 24 | 4.0 | 11.0 | 0.00 | 0.00 | 0.00 | 62 | 1012.6 |
| 20260905213244 | 92 | 169 | 2.0 | 4.0 | 0.00 | 0.00 | 0.00 | 64 | 1012.4 |
| 20260905212744 | 92 | 159 | 2.0 | 6.0 | 0.00 | 0.00 | 0.00 | 64 | 1012.4 |
| 20260905212243 | 92 | 76 | 2.0 | 4.0 | 0.00 | 0.00 | 0.00 | 63 | 1012.7 |
| 20260905211743 | 92 | 351 | 2.0 | 5.0 | 0.00 | 0.00 | 0.00 | 62 | 1012.7 |
| 20260905211238 | 93 | 24 | 3.0 | 6.0 | 0.00 | 0.00 | 0.00 | 62 | 1012.5 |
| 20260905210735 | 94 | 107 | 5.0 | 5.0 | 0.00 | 0.00 | 0.00 | 60 | 1012.8 |
| 20260905210234 | 94 | 23 | 3.0 | 4.0 | 0.00 | 0.00 | 0.00 | 60 | 1012.7 |
| 20260905205733 | 94 | 9 | 4.0 | 5.0 | 0.00 | 0.00 | 0.00 | 60 | 1012.5 |
| 20260905205228 | 93 | 13 | 4.0 | 5.0 | 0.00 | 0.00 | 0.00 | 60 | 1012.5 |
| 20260905204728 | 94 | 300 | 1.0 | 4.0 | 0.00 | 0.00 | 0.00 | 59 | 1012.5 |
| 20260905204224 | 93 | 311 | 2.0 | 3.0 | 0.00 | 0.00 | 0.00 | 59 | 1012.6 |
| 20260905203723 | 93 | 126 | 2.0 | 5.0 | 0.00 | 0.00 | 0.00 | 61 | 1012.8 |
| 20260905203219 | 92 | 151 | 2.0 | 4.0 | 0.00 | 0.00 | 0.00 | 62 | 1012.7 |
| 20260905202714 | 93 | 17 | 3.0 | 6.0 | 0.00 | 0.00 | 0.00 | 62 | 1013.0 |
| 20260905202209 | 93 | 16 | 2.0 | 6.0 | 0.00 | 0.00 | 0.00 | 61 | 1013.0 |
| 20260905201704 | 95 | 14 | 4.0 | 6.0 | 0.00 | 0.00 | 0.00 | 57 | 1013.0 |
| 20260905201205 | 95 | 355 | 4.0 | 6.0 | 0.00 | 0.00 | 0.00 | 57 | 1013.1 |
| 20260905200700 | 94 | 14 | 2.0 | 5.0 | 0.00 | 0.00 | 0.00 | 58 | 1013.1 |
| 20260905200155 | 95 | 22 | 7.0 | 7.0 | 0.00 | 0.00 | 0.00 | 57 | 1013.0 |
| 20260905195654 | 94 | 2 | 3.0 | 9.0 | 0.00 | 0.00 | 0.00 | 57 | 1013.3 |
| 20260905195149 | 95 | 41 | 3.0 | 7.0 | 0.00 | 0.00 | 0.00 | 55 | 1013.3 |
| 20260905194644 | 94 | 10 | 2.0 | 5.0 | 0.00 | 0.00 | 0.00 | 56 | 1013.3 |
| 20260905194143 | 94 | 350 | 2.0 | 4.0 | 0.00 | 0.00 | 0.00 | 57 | 1013.5 |
| 20260905193638 | 93 | 321 | 4.0 | 4.0 | 0.00 | 0.00 | 0.00 | 58 | 1013.6 |
| 20260905193138 | 93 | 316 | 5.0 | 6.0 | 0.00 | 0.00 | 0.00 | 57 | 1013.8 |
| 20260905192634 | 95 | 323 | 3.0 | 7.0 | 0.00 | 0.00 | 0.00 | 57 | 1014.0 |
| 20260905192130 | 95 | 16 | 4.0 | 6.0 | 0.00 | 0.00 | 0.00 | 57 | 1013.9 |
| 20260905191630 | 94 | 329 | 4.0 | 6.0 | 0.00 | 0.00 | 0.00 | 57 | 1014.0 |
| 20260905191128 | 94 | 338 | 5.0 | 6.0 | 0.00 | 0.00 | 0.00 | 57 | 1014.1 |
| 20260905190627 | 94 | 1 | 2.0 | 7.0 | 0.00 | 0.00 | 0.00 | 56 | 1014.1 |
| 20260905190126 | 94 | 325 | 2.0 | 4.0 | 0.00 | 0.00 | 0.00 | 57 | 1014.0 |
| 20260905185626 | 93 | 298 | 2.0 | 4.0 | 0.00 | 0.00 | 0.00 | 60 | 1014.0 |
| 20260905185126 | 93 | 294 | 5.0 | 6.0 | 0.00 | 0.00 | 0.00 | 59 | 1014.0 |
| 20260905184620 | 92 | 309 | 4.0 | 6.0 | 0.00 | 0.00 | 0.00 | 59 | 1014.1 |
| 20260905184119 | 93 | 307 | 4.0 | 5.0 | 0.00 | 0.00 | 0.00 | 59 | 1014.1 |
| 20260905183618 | 92 | 266 | 4.0 | 5.0 | 0.00 | 0.00 | 0.00 | 58 | 1014.3 |
| 20260905183114 | 93 | 306 | 4.0 | 6.0 | 0.00 | 0.00 | 0.00 | 55 | 1014.2 |
| 20260905182613 | 93 | 332 | 7.0 | 7.0 | 0.00 | 0.00 | 0.00 | 55 | 1014.4 |
| 20260905182113 | 93 | 300 | 3.0 | 5.0 | 0.00 | 0.00 | 0.00 | 59 | 1014.3 |
| 20260905181608 | 94 | 351 | 2.0 | 5.0 | 0.00 | 0.00 | 0.00 | 56 | 1014.5 |
| 20260905181107 | 93 | 15 | 2.0 | 4.0 | 0.00 | 0.00 | 0.00 | 55 | 1014.6 |
| 20260905180602 | 93 | 359 | 3.0 | 7.0 | 0.00 | 0.00 | 0.00 | 58 | 1014.5 |
| 20260905180057 | 93 | 316 | 4.0 | 4.0 | 0.00 | 0.00 | 0.00 | 60 | 1014.5 |
| 20260905175556 | 93 | 341 | 3.0 | 4.0 | 0.00 | 0.00 | 0.00 | 62 | 1014.5 |
| 20260905175052 | 91 | 274 | 3.0 | 8.0 | 0.00 | 0.00 | 0.00 | 63 | 1014.6 |
| 20260905174548 | 92 | 302 | 6.0 | 7.0 | 0.00 | 0.00 | 0.00 | 61 | 1014.4 |
| 20260905174043 | 91 | 328 | 4.0 | 6.0 | 0.00 | 0.00 | 0.00 | 59 | 1014.8 |
| 20260905173540 | 91 | 319 | 4.0 | 4.0 | 0.00 | 0.00 | 0.00 | 62 | 1014.6 |
| 20260905173035 | 91 | 4 | 4.0 | 6.0 | 0.00 | 0.00 | 0.00 | 61 | 1014.6 |
| 20260905172533 | 91 | 291 | 3.0 | 4.0 | 0.00 | 0.00 | 0.00 | 61 | 1014.4 |
| 20260905172028 | 91 | 307 | 4.0 | 6.0 | 0.00 | 0.00 | 0.00 | 61 | 1014.3 |
| 20260905171525 | 91 | 297 | 2.0 | 4.0 | 0.00 | 0.00 | 0.00 | 61 | 1014.5 |
| 20260905171021 | 92 | 286 | 4.0 | 6.0 | 0.00 | 0.00 | 0.00 | 60 | 1014.4 |
| 20260905170517 | 90 | 309 | 3.0 | 7.0 | 0.00 | 0.00 | 0.00 | 64 | 1014.4 |
| 20260905170012 | 92 | 330 | 5.0 | 7.0 | 0.00 | 0.00 | 0.00 | 61 | 1014.5 |
| 20260905165507 | 92 | 357 | 2.0 | 4.0 | 0.00 | 0.00 | 0.00 | 59 | 1014.8 |
| 20260905165002 | 92 | 323 | 2.0 | 4.0 | 0.00 | 0.00 | 0.00 | 60 | 1014.5 |
| 20260905164501 | 91 | 8 | 2.0 | 3.0 | 0.00 | 0.00 | 0.00 | 63 | 1014.4 |
| 20260905163956 | 90 | 256 | 2.0 | 5.0 | 0.00 | 0.00 | 0.00 | 65 | 1014.6 |
| 20260905163453 | 90 | 328 | 4.0 | 6.0 | 0.00 | 0.00 | 0.00 | 64 | 1014.7 |
| 20260905162948 | 90 | 279 | 3.0 | 5.0 | 0.00 | 0.00 | 0.00 | 66 | 1014.6 |
| 20260905162444 | 89 | 342 | 2.0 | 6.0 | 0.00 | 0.00 | 0.00 | 65 | 1014.7 |